Location: Palmerston North
(40.3500°S, 175.6170°E)
Time: 10:58:52
(UTC+13:00)

Envisat - Visible Passes

Search period start: 05 October 2024 00:00
Search period end: 15 October 2024 00:00
Orbit: 762 x 764 km, 98.3° (Epoch: 04 October)

Date Brightness Start Highest point End Pass type
(mag) Time Alt. Az. Time Alt. Az. Time Alt. Az.
05 Oct 4.8 03:23:20 26° S 03:23:20 26° S 03:25:33 10° S visible
06 Oct 5.2 02:45:14 22° SSE 02:45:14 22° SSE 02:47:34 10° S visible
06 Oct 4.9 04:25:23 17° SW 04:25:23 17° SW 04:26:42 10° SSW visible
07 Oct 5.8 02:07:09 13° SE 02:07:09 13° SE 02:08:36 10° SSE visible
07 Oct 4.5 03:47:17 27° SSW 03:47:17 27° SSW 03:49:37 10° SSW visible
08 Oct 4.7 03:09:12 30° SSE 03:09:12 30° SSE 03:11:59 10° S visible
08 Oct 5.1 04:49:20 13° SW 04:49:20 13° SW 04:50:01 10° SW visible
09 Oct 5.3 02:31:06 20° SE 02:31:06 20° SE 02:33:45 10° SSE visible
09 Oct 4.5 04:11:14 24° SW 04:11:14 24° SW 04:13:27 10° SSW visible
10 Oct 4.2 03:33:09 36° S 03:33:09 36° S 03:36:09 10° S visible
11 Oct 4.7 02:55:03 30° SE 02:55:03 30° SE 02:58:19 10° S visible
11 Oct 4.7 04:35:11 18° SW 04:35:11 18° SW 04:36:59 10° SW visible
12 Oct 5.5 02:16:57 17° ESE 02:16:57 17° ESE 02:19:45 10° SSE visible
12 Oct 4.1 03:57:06 34° SW 03:57:06 34° SW 04:00:06 10° SSW visible
13 Oct 4.0 03:19:00 42° SSE 03:19:00 42° SSE 03:22:35 10° S visible
13 Oct 5.0 04:59:08 12° WSW 04:59:08 12° WSW 04:59:57 10° SW visible
14 Oct 4.9 02:40:54 26° SE 02:40:54 26° SE 02:44:33 10° S visible
14 Oct 4.3 04:21:02 26° SW 04:21:02 26° SW 04:23:47 10° SSW visible
